Flag for Germany Weather past 2 weeks in Soltau, Lower Saxony, Germany

Now
54 °F

Passing clouds.


Feels Like: 52 °F
Forecast: 51 / 65 °F
Wind: 7 mph from West

Location: Fassberg

Current Time: Sep 2, 2015 at 1:30:34 AM

Latest Report: Sep 2, 2015 at 12:20 AM


Visibility: N/A

Pressure: 29.95 "Hg

Humidity: 94%

Dew point: 52 °F

Location of SoltauLocation

Historic Weather in Soltau — Graph

°F

Soltau temperature yesterday

Maximum temperature yesterday: 72 °F (at 12:20 AM)
Minimum temperature yesterday: 55 °F (at 10:20 PM)
Average temperature yesterday: 64 °F

Past Weeks' High & Low Weather Summary

 TemperatureHumidityPressure
High84 °F (Aug 31, 3:20 PM)100% (Aug 18, 2:20 AM)30.30 "Hg (Aug 18, 2:20 AM)
Low45 °F (Aug 29, 5:20 AM)34% (Aug 22, 5:20 PM)29.62 "Hg (Aug 24, 6:20 PM)
Average63 °F80%29.99 "Hg
* Reported Aug 17 11:20 PM — Sep 1 11:20 PM, Soltau, Weather by CustomWeather, © 2015

Note: Actual official high and low records may vary slightly from our data, if they occured in-between our weather recording intervals... More about our weather records

Advertising

Soltau weather history for previous 24 hours

 ConditionsComfort  
Time TempWeatherWind HumidityBarometerVisibility
11:20 PM
Tue, Sep 1
55 °FPassing clouds.6 mph94%29.92 "HgN/A
10:20 PM55 °FPassing clouds.6 mph94%29.92 "HgN/A
9:20 PM57 °FPassing clouds.6 mph94%29.92 "HgN/A
8:20 PM59 °FBroken clouds.9 mph94%29.89 "Hg5 mi
7:20 PM59 °FBroken clouds.7 mph94%29.86 "Hg5 mi
6:20 PM59 °FDrizzle. Partly sunny.10 mph94%29.86 "Hg5 mi
5:20 PM61 °FDrizzle. Partly sunny.8 mph88%29.86 "HgN/A
4:20 PM61 °FDrizzle. Broken clouds.10 mph88%29.83 "HgN/A
3:20 PM61 °FDrizzle. Partly sunny.10 mph88%29.83 "HgN/A
2:20 PM63 °FLight rain. Partly sunny.10 mph88%29.80 "HgN/A
1:20 PM64 °FPartly sunny.12 mph78%29.80 "HgN/A
12:20 PM66 °FBroken clouds.12 mph73%29.77 "HgN/A
11:20 AM68 °FBroken clouds.12 mph73%29.74 "HgN/A
10:20 AM68 °FPartly sunny.14 mph78%29.77 "HgN/A
9:20 AM68 °FPartly sunny.15 mph73%29.74 "HgN/A
8:20 AM68 °FPartly sunny.16 mph73%29.74 "HgN/A
7:20 AM68 °FPartly cloudy.6 mph83%29.74 "HgN/A
6:20 AM66 °FPassing clouds.10 mph88%29.74 "HgN/A
5:20 AM66 °FPassing clouds.7 mph88%29.74 "HgN/A
4:20 AM68 °FPassing clouds.12 mph83%29.74 "HgN/A
3:20 AM68 °FSmoke.N/A88%29.74 "HgN/A
2:20 AM70 °FPassing clouds.8 mph78%29.74 "HgN/A
1:20 AM68 °FPassing clouds.7 mph78%29.74 "HgN/A
Weather by CustomWeather, © 2015

See weather overviewHow to use our weather pages